owner,sensor,date,latitude,longitude,air_temperature,qcFlag 
TCOON,ioos:station:TCOON:013:1,2016-01-04T14:12:00Z,27.4847,-97.3181,8.4,1111122 
TCOON,ioos:station:TCOON:013:1,2016-01-04T15:12:00Z,27.4847,-97.3181,9.4,1111122 
TCOON,ioos:station:TCOON:013:1,2016-01-04T16:12:00Z,27.4847,-97.3181,10.0,1111122 
TCOON,ioos:station:TCOON:013:1,2016-01-04T17:12:00Z,27.4847,-97.3181,10.2,1111122 
TCOON,ioos:station:TCOON:013:1,2016-01-04T18:12:00Z,27.4847,-97.3181,11.3,1111122 
TCOON,ioos:station:TCOON:013:1,2016-01-04T19:12:00Z,27.4847,-97.3181,12.6,1111122 
TCOON,ioos:station:TCOON:013:1,2016-01-04T20:12:00Z,27.4847,-97.3181,13.3,1111122 
TCOON,ioos:station:TCOON:013:1,2016-01-04T21:30:00Z,27.4847,-97.3181,13.0,1111122 
TCOON,ioos:station:TCOON:013:1,2016-01-04T22:12:00Z,27.4847,-97.3181,12.9,1111122 
TCOON,ioos:station:TCOON:013:1,2016-01-04T23:12:00Z,27.4847,-97.3181,13.8,1111122 
TCOON,ioos:station:TCOON:013:1,2016-01-05T16:18:00Z,27.4847,-97.3181,12.0,1111122 
TCOON,ioos:station:TCOON:013:1,2016-01-06T15:18:00Z,27.4847,-97.3181,15.6,1111122 
TCOON,ioos:station:TCOON:013:1,2016-01-06T16:12:00Z,27.4847,-97.3181,16.7,1111122 
TCOON,ioos:station:TCOON:013:1,2016-01-06T17:12:00Z,27.4847,-97.3181,17.9,1111122 
TCOON,ioos:station:TCOON:013:1,2016-01-06T18:12:00Z,27.4847,-97.3181,19.2,1111122 
TCOON,ioos:station:TCOON:013:1,2016-01-06T19:12:00Z,27.4847,-97.3181,20.1,1111122 
TCOON,ioos:station:TCOON:013:1,2016-01-06T20:12:00Z,27.4847,-97.3181,21.2,1111122 
TCOON,ioos:station:TCOON:013:1,2016-01-06T21:12:00Z,27.4847,-97.3181,19.9,1111122 
TCOON,ioos:station:TCOON:013:1,2016-01-06T22:12:00Z,27.4847,-97.3181,20.4,1111122 
TCOON,ioos:station:TCOON:013:1,2016-01-06T23:12:00Z,27.4847,-97.3181,19.1,1111122 
TCOON,ioos:station:TCOON:013:1,2016-01-07T00:12:00Z,27.4847,-97.3181,18.0,1111122 
TCOON,ioos:station:TCOON:013:1,2016-01-07T19:30:00Z,27.4847,-97.3181,16.1,1111122 
TCOON,ioos:station:TCOON:013:1,2016-01-07T20:12:00Z,27.4847,-97.3181,17.6,1111122 
TCOON,ioos:station:TCOON:013:1,2016-01-07T21:12:00Z,27.4847,-97.3181,17.9,1111122 
TCOON,ioos:station:TCOON:013:1,2016-01-07T22:12:00Z,27.4847,-97.3181,19.2,1111122 
TCOON,ioos:station:TCOON:013:1,2016-01-07T23:12:00Z,27.4847,-97.3181,18.1,1111122 
TCOON,ioos:station:TCOON:013:1,2016-01-09T13:54:00Z,27.4847,-97.3181,12.7,1111122 
TCOON,ioos:station:TCOON:013:1,2016-01-09T14:12:00Z,27.4847,-97.3181,13.3,1111122 
TCOON,ioos:station:TCOON:013:1,2016-01-09T15:18:00Z,27.4847,-97.3181,14.0,1111122 
TCOON,ioos:station:TCOON:013:1,2016-01-09T16:12:00Z,27.4847,-97.3181,15.6,1111122 
TCOON,ioos:station:TCOON:013:1,2016-01-09T17:12:00Z,27.4847,-97.3181,16.3,1111122 
TCOON,ioos:station:TCOON:013:1,2016-01-09T18:18:00Z,27.4847,-97.3181,16.7,1111122 
TCOON,ioos:station:TCOON:013:1,2016-01-09T19:12:00Z,27.4847,-97.3181,17.5,1111122 
TCOON,ioos:station:TCOON:013:1,2016-01-09T20:12:00Z,27.4847,-97.3181,20.4,1111122 
TCOON,ioos:station:TCOON:013:1,2016-01-09T21:12:00Z,27.4847,-97.3181,18.3,1111122 
TCOON,ioos:station:TCOON:013:1,2016-01-09T22:12:00Z,27.4847,-97.3181,17.4,1111122 
TCOON,ioos:station:TCOON:013:1,2016-01-09T23:12:00Z,27.4847,-97.3181,16.9,1111122 
TCOON,ioos:station:TCOON:013:1,2016-01-10T00:12:00Z,27.4847,-97.3181,15.7,1111122 
TCOON,ioos:station:TCOON:013:1,2016-01-10T01:12:00Z,27.4847,-97.3181,14.5,1111122 
TCOON,ioos:station:TCOON:013:1,2016-01-10T02:12:00Z,27.4847,-97.3181,13.8,1111122 
TCOON,ioos:station:TCOON:013:1,2016-01-10T03:12:00Z,27.4847,-97.3181,12.3,1111122 
TCOON,ioos:station:TCOON:013:1,2016-01-10T04:18:00Z,27.4847,-97.3181,10.6,1111122 
TCOON,ioos:station:TCOON:013:1,2016-01-10T05:12:00Z,27.4847,-97.3181,9.8,1111122 
TCOON,ioos:station:TCOON:013:1,2016-01-10T06:12:00Z,27.4847,-97.3181,9.1,1111122 
TCOON,ioos:station:TCOON:013:1,2016-01-10T07:12:00Z,27.4847,-97.3181,8.9,1111122 
TCOON,ioos:station:TCOON:013:1,2016-01-10T08:12:00Z,27.4847,-97.3181,8.4,1111122 
TCOON,ioos:station:TCOON:013:1,2016-01-10T09:18:00Z,27.4847,-97.3181,7.8,1111122 
TCOON,ioos:station:TCOON:013:1,2016-01-10T10:12:00Z,27.4847,-97.3181,7.1,1111122 
TCOON,ioos:station:TCOON:013:1,2016-01-10T11:12:00Z,27.4847,-97.3181,6.1,1111122 
TCOON,ioos:station:TCOON:013:1,2016-01-10T12:12:00Z,27.4847,-97.3181,5.4,1111122 
TCOON,ioos:station:TCOON:013:1,2016-01-10T13:36:00Z,27.4847,-97.3181,5.1,1111122 
TCOON,ioos:station:TCOON:013:1,2016-01-10T14:12:00Z,27.4847,-97.3181,5.4,1111122 
TCOON,ioos:station:TCOON:013:1,2016-01-10T15:12:00Z,27.4847,-97.3181,6.5,1111122 
TCOON,ioos:station:TCOON:013:1,2016-01-10T16:18:00Z,27.4847,-97.3181,6.9,1111122 
TCOON,ioos:station:TCOON:013:1,2016-01-10T17:18:00Z,27.4847,-97.3181,7.0,1111122 
TCOON,ioos:station:TCOON:013:1,2016-01-10T18:18:00Z,27.4847,-97.3181,7.8,1111122 
TCOON,ioos:station:TCOON:013:1,2016-01-10T19:18:00Z,27.4847,-97.3181,9.2,1111122 
TCOON,ioos:station:TCOON:013:1,2016-01-10T20:24:00Z,27.4847,-97.3181,10.1,1111122 
TCOON,ioos:station:TCOON:013:1,2016-01-10T21:12:00Z,27.4847,-97.3181,9.5,1111122 
TCOON,ioos:station:TCOON:013:1,2016-01-10T22:12:00Z,27.4847,-97.3181,9.9,1111122 
TCOON,ioos:station:TCOON:013:1,2016-01-10T23:12:00Z,27.4847,-97.3181,10.0,1111122 
TCOON,ioos:station:TCOON:013:1,2016-01-11T00:12:00Z,27.4847,-97.3181,9.6,1111122 
TCOON,ioos:station:TCOON:013:1,2016-01-11T01:12:00Z,27.4847,-97.3181,9.7,1111122 
TCOON,ioos:station:TCOON:013:1,2016-01-11T02:12:00Z,27.4847,-97.3181,9.7,1111122 
TCOON,ioos:station:TCOON:013:1,2016-01-11T03:12:00Z,27.4847,-97.3181,9.6,1111122 
TCOON,ioos:station:TCOON:013:1,2016-01-11T04:12:00Z,27.4847,-97.3181,9.9,1111122 
TCOON,ioos:station:TCOON:013:1,2016-01-11T05:12:00Z,27.4847,-97.3181,10.1,1111122 
TCOON,ioos:station:TCOON:013:1,2016-01-11T06:18:00Z,27.4847,-97.3181,10.9,1111122 
TCOON,ioos:station:TCOON:013:1,2016-01-11T07:12:00Z,27.4847,-97.3181,11.0,1111122 
TCOON,ioos:station:TCOON:013:1,2016-01-11T08:12:00Z,27.4847,-97.3181,11.2,1111122 
TCOON,ioos:station:TCOON:013:1,2016-01-11T09:18:00Z,27.4847,-97.3181,10.5,1111122 
TCOON,ioos:station:TCOON:013:1,2016-01-11T10:12:00Z,27.4847,-97.3181,10.4,1111122 
TCOON,ioos:station:TCOON:013:1,2016-01-11T11:12:00Z,27.4847,-97.3181,10.2,1111122 
TCOON,ioos:station:TCOON:013:1,2016-01-11T12:12:00Z,27.4847,-97.3181,10.3,1111122 
TCOON,ioos:station:TCOON:013:1,2016-01-11T13:12:00Z,27.4847,-97.3181,9.7,1111122 
TCOON,ioos:station:TCOON:013:1,2016-01-11T14:12:00Z,27.4847,-97.3181,9.7,1111122 
TCOON,ioos:station:TCOON:013:1,2016-01-11T15:12:00Z,27.4847,-97.3181,9.7,1111122 
TCOON,ioos:station:TCOON:013:1,2016-01-11T16:12:00Z,27.4847,-97.3181,10.1,1111122 
TCOON,ioos:station:TCOON:013:1,2016-01-11T17:12:00Z,27.4847,-97.3181,10.4,1111122 
TCOON,ioos:station:TCOON:013:1,2016-01-11T18:12:00Z,27.4847,-97.3181,10.8,1111122 
TCOON,ioos:station:TCOON:013:1,2016-01-11T19:12:00Z,27.4847,-97.3181,10.6,1111122 
TCOON,ioos:station:TCOON:013:1,2016-01-11T20:12:00Z,27.4847,-97.3181,10.1,1111122 
TCOON,ioos:station:TCOON:013:1,2016-01-11T21:12:00Z,27.4847,-97.3181,10.4,1111122 
TCOON,ioos:station:TCOON:013:1,2016-01-11T22:12:00Z,27.4847,-97.3181,10.8,1111122 
TCOON,ioos:station:TCOON:013:1,2016-01-11T23:12:00Z,27.4847,-97.3181,11.4,1111122 
TCOON,ioos:station:TCOON:013:1,2016-01-12T00:18:00Z,27.4847,-97.3181,11.4,1111122 
TCOON,ioos:station:TCOON:013:1,2016-01-12T01:12:00Z,27.4847,-97.3181,11.4,1111122 
TCOON,ioos:station:TCOON:013:1,2016-01-12T02:12:00Z,27.4847,-97.3181,11.2,1111122 
TCOON,ioos:station:TCOON:013:1,2016-01-12T14:36:00Z,27.4847,-97.3181,10.9,1111122 
TCOON,ioos:station:TCOON:013:1,2016-01-12T15:12:00Z,27.4847,-97.3181,11.4,1111122 
TCOON,ioos:station:TCOON:013:1,2016-01-12T18:18:00Z,27.4847,-97.3181,12.7,1111122 
TCOON,ioos:station:TCOON:013:1,2016-01-12T21:18:00Z,27.4847,-97.3181,14.2,1111122 
TCOON,ioos:station:TCOON:013:1,2016-01-13T00:12:00Z,27.4847,-97.3181,13.1,1111122 
TCOON,ioos:station:TCOON:013:1,2016-01-13T01:18:00Z,27.4847,-97.3181,13.0,1111122 
TCOON,ioos:station:TCOON:013:1,2016-01-13T03:12:00Z,27.4847,-97.3181,13.3,1111122 
TCOON,ioos:station:TCOON:013:1,2016-01-13T04:18:00Z,27.4847,-97.3181,12.6,1111122 
TCOON,ioos:station:TCOON:013:1,2016-01-13T05:12:00Z,27.4847,-97.3181,12.4,1111122 
TCOON,ioos:station:TCOON:013:1,2016-01-13T06:18:00Z,27.4847,-97.3181,11.6,1111122 
TCOON,ioos:station:TCOON:013:1,2016-01-13T07:12:00Z,27.4847,-97.3181,11.6,1111122 
TCOON,ioos:station:TCOON:013:1,2016-01-13T08:12:00Z,27.4847,-97.3181,11.8,1111122 
TCOON,ioos:station:TCOON:013:1,2016-01-13T09:18:00Z,27.4847,-97.3181,12.0,1111122 
TCOON,ioos:station:TCOON:013:1,2016-01-13T10:12:00Z,27.4847,-97.3181,12.5,1111122 
TCOON,ioos:station:TCOON:013:1,2016-01-13T11:18:00Z,27.4847,-97.3181,12.5,1111122 
TCOON,ioos:station:TCOON:013:1,2016-01-13T12:18:00Z,27.4847,-97.3181,12.6,1111122 
TCOON,ioos:station:TCOON:013:1,2016-01-13T13:12:00Z,27.4847,-97.3181,12.1,1111122 
TCOON,ioos:station:TCOON:013:1,2016-01-13T14:12:00Z,27.4847,-97.3181,12.1,1111122 
TCOON,ioos:station:TCOON:013:1,2016-01-13T15:12:00Z,27.4847,-97.3181,13.0,1111122 
TCOON,ioos:station:TCOON:013:1,2016-01-13T17:06:00Z,27.4847,-97.3181,14.1,1111122 
TCOON,ioos:station:TCOON:013:1,2016-01-13T18:12:00Z,27.4847,-97.3181,15.1,1111122 
TCOON,ioos:station:TCOON:013:1,2016-01-13T19:12:00Z,27.4847,-97.3181,15.7,1111122 
TCOON,ioos:station:TCOON:013:1,2016-01-13T20:12:00Z,27.4847,-97.3181,16.4,1111122 
TCOON,ioos:station:TCOON:013:1,2016-01-13T21:12:00Z,27.4847,-97.3181,16.6,1111122 
TCOON,ioos:station:TCOON:013:1,2016-01-13T22:12:00Z,27.4847,-97.3181,15.8,1111122 
TCOON,ioos:station:TCOON:013:1,2016-01-13T23:36:00Z,27.4847,-97.3181,16.0,1111122 
TCOON,ioos:station:TCOON:013:1,2016-01-14T00:24:00Z,27.4847,-97.3181,15.6,1111122 
TCOON,ioos:station:TCOON:013:1,2016-01-14T01:12:00Z,27.4847,-97.3181,15.7,1111122 
TCOON,ioos:station:TCOON:013:1,2016-01-14T02:12:00Z,27.4847,-97.3181,15.8,1111122 
TCOON,ioos:station:TCOON:013:1,2016-01-14T03:12:00Z,27.4847,-97.3181,15.8,1111122 
TCOON,ioos:station:TCOON:013:1,2016-01-14T04:12:00Z,27.4847,-97.3181,15.1,1111122 
TCOON,ioos:station:TCOON:013:1,2016-01-14T05:12:00Z,27.4847,-97.3181,15.0,1111122 
TCOON,ioos:station:TCOON:013:1,2016-01-14T06:12:00Z,27.4847,-97.3181,15.0,1111122 
TCOON,ioos:station:TCOON:013:1,2016-01-14T07:12:00Z,27.4847,-97.3181,15.2,1111122 
TCOON,ioos:station:TCOON:013:1,2016-01-14T08:12:00Z,27.4847,-97.3181,15.5,1111122 
TCOON,ioos:station:TCOON:013:1,2016-01-14T09:30:00Z,27.4847,-97.3181,16.2,1111122 
TCOON,ioos:station:TCOON:013:1,2016-01-14T10:12:00Z,27.4847,-97.3181,16.0,1111122 
TCOON,ioos:station:TCOON:013:1,2016-01-14T11:12:00Z,27.4847,-97.3181,15.3,1111122 
TCOON,ioos:station:TCOON:013:1,2016-01-14T12:12:00Z,27.4847,-97.3181,14.9,1111122 
TCOON,ioos:station:TCOON:013:1,2016-01-14T13:12:00Z,27.4847,-97.3181,15.5,1111122 
TCOON,ioos:station:TCOON:013:1,2016-01-14T14:12:00Z,27.4847,-97.3181,15.0,1111122 
TCOON,ioos:station:TCOON:013:1,2016-01-14T15:12:00Z,27.4847,-97.3181,15.3,1111122 
TCOON,ioos:station:TCOON:013:1,2016-01-14T16:12:00Z,27.4847,-97.3181,15.4,1111122 
TCOON,ioos:station:TCOON:013:1,2016-01-14T17:12:00Z,27.4847,-97.3181,16.4,1111122 
TCOON,ioos:station:TCOON:013:1,2016-01-14T18:12:00Z,27.4847,-97.3181,16.9,1111122 
TCOON,ioos:station:TCOON:013:1,2016-01-14T19:12:00Z,27.4847,-97.3181,17.4,1111122 
TCOON,ioos:station:TCOON:013:1,2016-01-14T20:12:00Z,27.4847,-97.3181,20.0,1111122 
TCOON,ioos:station:TCOON:013:1,2016-01-14T21:12:00Z,27.4847,-97.3181,19.3,1111122 
TCOON,ioos:station:TCOON:013:1,2016-01-14T22:12:00Z,27.4847,-97.3181,20.7,1111122 
TCOON,ioos:station:TCOON:013:1,2016-01-14T23:12:00Z,27.4847,-97.3181,19.6,1111122 
TCOON,ioos:station:TCOON:013:1,2016-01-15T00:12:00Z,27.4847,-97.3181,16.8,1111122 
TCOON,ioos:station:TCOON:013:1,2016-01-15T01:12:00Z,27.4847,-97.3181,16.0,1111122 
TCOON,ioos:station:TCOON:013:1,2016-01-15T02:12:00Z,27.4847,-97.3181,16.0,1111122 
TCOON,ioos:station:TCOON:013:1,2016-01-15T03:12:00Z,27.4847,-97.3181,15.4,1111122 
TCOON,ioos:station:TCOON:013:1,2016-01-15T04:12:00Z,27.4847,-97.3181,15.0,1111122 
TCOON,ioos:station:TCOON:013:1,2016-01-15T05:12:00Z,27.4847,-97.3181,15.1,1111122 
TCOON,ioos:station:TCOON:013:1,2016-01-15T06:12:00Z,27.4847,-97.3181,15.1,1111122 
TCOON,ioos:station:TCOON:013:1,2016-01-15T07:12:00Z,27.4847,-97.3181,14.7,1111122 
TCOON,ioos:station:TCOON:013:1,2016-01-15T08:12:00Z,27.4847,-97.3181,14.7,1111122 
TCOON,ioos:station:TCOON:013:1,2016-01-15T09:30:00Z,27.4847,-97.3181,13.6,1111122 
TCOON,ioos:station:TCOON:013:1,2016-01-15T10:12:00Z,27.4847,-97.3181,13.8,1111122 
TCOON,ioos:station:TCOON:013:1,2016-01-15T11:12:00Z,27.4847,-97.3181,13.4,1111122 
TCOON,ioos:station:TCOON:013:1,2016-01-15T12:12:00Z,27.4847,-97.3181,12.5,1111122 
TCOON,ioos:station:TCOON:013:1,2016-01-15T14:18:00Z,27.4847,-97.3181,12.6,1111122 
TCOON,ioos:station:TCOON:013:1,2016-01-15T16:12:00Z,27.4847,-97.3181,16.5,1111122 
TCOON,ioos:station:TCOON:013:1,2016-01-15T17:12:00Z,27.4847,-97.3181,18.2,1111122 
TCOON,ioos:station:TCOON:013:1,2016-01-15T18:12:00Z,27.4847,-97.3181,19.6,1111122 
TCOON,ioos:station:TCOON:013:1,2016-01-15T19:12:00Z,27.4847,-97.3181,20.2,1111122 
TCOON,ioos:station:TCOON:013:1,2016-01-15T20:18:00Z,27.4847,-97.3181,26.1,1111122 
TCOON,ioos:station:TCOON:013:1,2016-01-15T21:36:00Z,27.4847,-97.3181,23.1,1111122 
TCOON,ioos:station:TCOON:013:1,2016-01-15T22:18:00Z,27.4847,-97.3181,22.0,1111122 
TCOON,ioos:station:TCOON:013:1,2016-01-15T23:12:00Z,27.4847,-97.3181,20.6,1111122 
TCOON,ioos:station:TCOON:013:1,2016-01-16T00:12:00Z,27.4847,-97.3181,16.7,1111122 
TCOON,ioos:station:TCOON:013:1,2016-01-16T01:12:00Z,27.4847,-97.3181,15.8,1111122 
TCOON,ioos:station:TCOON:013:1,2016-01-16T02:12:00Z,27.4847,-97.3181,15.8,1111122 
TCOON,ioos:station:TCOON:013:1,2016-01-16T03:18:00Z,27.4847,-97.3181,15.3,1111122 
TCOON,ioos:station:TCOON:013:1,2016-01-16T04:12:00Z,27.4847,-97.3181,14.7,1111122 
TCOON,ioos:station:TCOON:013:1,2016-01-16T05:12:00Z,27.4847,-97.3181,14.0,1111122 
TCOON,ioos:station:TCOON:013:1,2016-01-16T06:18:00Z,27.4847,-97.3181,15.2,1111122 
TCOON,ioos:station:TCOON:013:1,2016-01-16T07:12:00Z,27.4847,-97.3181,14.8,1111122 
TCOON,ioos:station:TCOON:013:1,2016-01-16T08:12:00Z,27.4847,-97.3181,14.5,1111122 
TCOON,ioos:station:TCOON:013:1,2016-01-16T09:24:00Z,27.4847,-97.3181,14.5,1111122 
TCOON,ioos:station:TCOON:013:1,2016-01-16T10:12:00Z,27.4847,-97.3181,14.2,1111122 
TCOON,ioos:station:TCOON:013:1,2016-01-16T11:12:00Z,27.4847,-97.3181,14.6,1111122 
TCOON,ioos:station:TCOON:013:1,2016-01-16T12:12:00Z,27.4847,-97.3181,14.6,1111122 
TCOON,ioos:station:TCOON:013:1,2016-01-16T13:12:00Z,27.4847,-97.3181,14.8,1111122 
TCOON,ioos:station:TCOON:013:1,2016-01-16T14:12:00Z,27.4847,-97.3181,15.6,1111122 
TCOON,ioos:station:TCOON:013:1,2016-01-16T15:12:00Z,27.4847,-97.3181,16.6,1111122 
TCOON,ioos:station:TCOON:013:1,2016-01-16T16:12:00Z,27.4847,-97.3181,17.8,1111122 
TCOON,ioos:station:TCOON:013:1,2016-01-16T17:12:00Z,27.4847,-97.3181,19.1,1111122 
TCOON,ioos:station:TCOON:013:1,2016-01-16T18:12:00Z,27.4847,-97.3181,17.3,1111122 
TCOON,ioos:station:TCOON:013:1,2016-01-16T19:12:00Z,27.4847,-97.3181,14.0,1111122 
TCOON,ioos:station:TCOON:013:1,2016-01-16T20:12:00Z,27.4847,-97.3181,16.8,1111122 
TCOON,ioos:station:TCOON:013:1,2016-01-16T21:12:00Z,27.4847,-97.3181,17.4,1111122 
TCOON,ioos:station:TCOON:013:1,2016-01-16T22:12:00Z,27.4847,-97.3181,17.2,1111122 
TCOON,ioos:station:TCOON:013:1,2016-01-16T23:12:00Z,27.4847,-97.3181,16.9,1111122 
TCOON,ioos:station:TCOON:013:1,2016-01-17T00:12:00Z,27.4847,-97.3181,15.5,1111122 
TCOON,ioos:station:TCOON:013:1,2016-01-17T01:12:00Z,27.4847,-97.3181,15.2,1111122 
TCOON,ioos:station:TCOON:013:1,2016-01-17T02:12:00Z,27.4847,-97.3181,15.9,1111122 
TCOON,ioos:station:TCOON:013:1,2016-01-17T03:12:00Z,27.4847,-97.3181,14.6,1111122 
TCOON,ioos:station:TCOON:013:1,2016-01-17T04:18:00Z,27.4847,-97.3181,13.2,1111122 
TCOON,ioos:station:TCOON:013:1,2016-01-17T05:12:00Z,27.4847,-97.3181,12.3,1111122 
TCOON,ioos:station:TCOON:013:1,2016-01-17T06:18:00Z,27.4847,-97.3181,11.4,1111122 
TCOON,ioos:station:TCOON:013:1,2016-01-17T08:12:00Z,27.4847,-97.3181,10.4,1111122 
TCOON,ioos:station:TCOON:013:1,2016-01-17T09:36:00Z,27.4847,-97.3181,9.6,1111122 
TCOON,ioos:station:TCOON:013:1,2016-01-17T10:12:00Z,27.4847,-97.3181,9.3,1111122 
TCOON,ioos:station:TCOON:013:1,2016-01-17T11:12:00Z,27.4847,-97.3181,8.7,1111122 
TCOON,ioos:station:TCOON:013:1,2016-01-17T12:12:00Z,27.4847,-97.3181,8.0,1111122 
TCOON,ioos:station:TCOON:013:1,2016-01-17T13:12:00Z,27.4847,-97.3181,7.5,1111122 
TCOON,ioos:station:TCOON:013:1,2016-01-17T14:12:00Z,27.4847,-97.3181,6.9,1111122 
TCOON,ioos:station:TCOON:013:1,2016-01-17T15:12:00Z,27.4847,-97.3181,7.6,1111122 
TCOON,ioos:station:TCOON:013:1,2016-01-17T16:12:00Z,27.4847,-97.3181,8.3,1111122 
TCOON,ioos:station:TCOON:013:1,2016-01-17T17:12:00Z,27.4847,-97.3181,9.1,1111122 
TCOON,ioos:station:TCOON:013:1,2016-01-17T18:12:00Z,27.4847,-97.3181,9.6,1111122 
TCOON,ioos:station:TCOON:013:1,2016-01-17T19:12:00Z,27.4847,-97.3181,10.3,1111122 
TCOON,ioos:station:TCOON:013:1,2016-01-17T20:12:00Z,27.4847,-97.3181,12.6,1111122 
TCOON,ioos:station:TCOON:013:1,2016-01-17T21:12:00Z,27.4847,-97.3181,11.8,1111122 
TCOON,ioos:station:TCOON:013:1,2016-01-17T22:12:00Z,27.4847,-97.3181,11.6,1111122 
TCOON,ioos:station:TCOON:013:1,2016-01-17T23:12:00Z,27.4847,-97.3181,11.5,1111122 
TCOON,ioos:station:TCOON:013:1,2016-01-18T00:48:00Z,27.4847,-97.3181,11.8,1111122 
TCOON,ioos:station:TCOON:013:1,2016-01-18T01:12:00Z,27.4847,-97.3181,11.8,1111122 
TCOON,ioos:station:TCOON:013:1,2016-01-18T02:12:00Z,27.4847,-97.3181,12.0,1111122 
TCOON,ioos:station:TCOON:013:1,2016-01-18T03:12:00Z,27.4847,-97.3181,13.1,1111122 
TCOON,ioos:station:TCOON:013:1,2016-01-18T04:12:00Z,27.4847,-97.3181,12.5,1111122 
TCOON,ioos:station:TCOON:013:1,2016-01-18T05:12:00Z,27.4847,-97.3181,12.5,1111122 
TCOON,ioos:station:TCOON:013:1,2016-01-18T06:12:00Z,27.4847,-97.3181,12.0,1111122 
TCOON,ioos:station:TCOON:013:1,2016-01-18T07:12:00Z,27.4847,-97.3181,12.0,1111122 
TCOON,ioos:station:TCOON:013:1,2016-01-18T08:12:00Z,27.4847,-97.3181,12.2,1111122 
TCOON,ioos:station:TCOON:013:1,2016-01-18T09:18:00Z,27.4847,-97.3181,10.9,1111122 
TCOON,ioos:station:TCOON:013:1,2016-01-18T10:12:00Z,27.4847,-97.3181,11.6,1111122 
TCOON,ioos:station:TCOON:013:1,2016-01-18T11:12:00Z,27.4847,-97.3181,12.0,1111122 
TCOON,ioos:station:TCOON:013:1,2016-01-18T12:12:00Z,27.4847,-97.3181,11.8,1111122 
TCOON,ioos:station:TCOON:013:1,2016-01-18T13:12:00Z,27.4847,-97.3181,12.3,1111122 
TCOON,ioos:station:TCOON:013:1,2016-01-18T14:12:00Z,27.4847,-97.3181,12.6,1111122 
TCOON,ioos:station:TCOON:013:1,2016-01-18T15:12:00Z,27.4847,-97.3181,13.1,1111122 
TCOON,ioos:station:TCOON:013:1,2016-01-18T16:12:00Z,27.4847,-97.3181,13.7,1111122 
TCOON,ioos:station:TCOON:013:1,2016-01-18T17:18:00Z,27.4847,-97.3181,14.1,1111122 
TCOON,ioos:station:TCOON:013:1,2016-01-18T18:12:00Z,27.4847,-97.3181,14.9,1111122 
TCOON,ioos:station:TCOON:013:1,2016-01-18T21:12:00Z,27.4847,-97.3181,17.0,1111122 
TCOON,ioos:station:TCOON:013:1,2016-01-18T22:18:00Z,27.4847,-97.3181,16.8,1111122 
TCOON,ioos:station:TCOON:013:1,2016-01-19T00:12:00Z,27.4847,-97.3181,15.5,1111122 
TCOON,ioos:station:TCOON:013:1,2016-01-19T01:12:00Z,27.4847,-97.3181,14.9,1111122 
TCOON,ioos:station:TCOON:013:1,2016-01-19T02:18:00Z,27.4847,-97.3181,14.7,1111122 
TCOON,ioos:station:TCOON:013:1,2016-01-19T04:18:00Z,27.4847,-97.3181,14.0,1111122 
TCOON,ioos:station:TCOON:013:1,2016-01-19T05:12:00Z,27.4847,-97.3181,14.2,1111122 
TCOON,ioos:station:TCOON:013:1,2016-01-19T06:12:00Z,27.4847,-97.3181,14.3,1111122 
TCOON,ioos:station:TCOON:013:1,2016-01-19T07:12:00Z,27.4847,-97.3181,14.2,1111122 
TCOON,ioos:station:TCOON:013:1,2016-01-19T08:18:00Z,27.4847,-97.3181,14.0,1111122 
TCOON,ioos:station:TCOON:013:1,2016-01-19T09:24:00Z,27.4847,-97.3181,14.0,1111122 
TCOON,ioos:station:TCOON:013:1,2016-01-19T10:12:00Z,27.4847,-97.3181,13.8,1111122 
TCOON,ioos:station:TCOON:013:1,2016-01-19T11:24:00Z,27.4847,-97.3181,13.9,1111122 
TCOON,ioos:station:TCOON:013:1,2016-01-19T12:12:00Z,27.4847,-97.3181,14.3,1111122 
TCOON,ioos:station:TCOON:013:1,2016-01-19T13:12:00Z,27.4847,-97.3181,13.9,1111122 
TCOON,ioos:station:TCOON:013:1,2016-01-19T14:12:00Z,27.4847,-97.3181,14.7,1111122 
TCOON,ioos:station:TCOON:013:1,2016-01-19T15:18:00Z,27.4847,-97.3181,17.9,1111122 
TCOON,ioos:station:TCOON:013:1,2016-01-19T16:18:00Z,27.4847,-97.3181,19.1,1111122 
TCOON,ioos:station:TCOON:013:1,2016-01-19T17:12:00Z,27.4847,-97.3181,19.5,1111122 
TCOON,ioos:station:TCOON:013:1,2016-01-19T18:12:00Z,27.4847,-97.3181,19.7,1111122 
TCOON,ioos:station:TCOON:013:1,2016-01-19T19:12:00Z,27.4847,-97.3181,19.9,1111122 
TCOON,ioos:station:TCOON:013:1,2016-01-19T20:18:00Z,27.4847,-97.3181,21.1,1111122 
TCOON,ioos:station:TCOON:013:1,2016-01-19T21:18:00Z,27.4847,-97.3181,19.8,1111122 
TCOON,ioos:station:TCOON:013:1,2016-01-19T22:12:00Z,27.4847,-97.3181,19.7,1111122 
TCOON,ioos:station:TCOON:013:1,2016-01-20T01:12:00Z,27.4847,-97.3181,17.8,1111122 
TCOON,ioos:station:TCOON:013:1,2016-01-20T03:12:00Z,27.4847,-97.3181,17.4,1111122 
TCOON,ioos:station:TCOON:013:1,2016-01-20T04:18:00Z,27.4847,-97.3181,17.4,1111122 
TCOON,ioos:station:TCOON:013:1,2016-01-20T05:18:00Z,27.4847,-97.3181,16.2,1111122 
TCOON,ioos:station:TCOON:013:1,2016-01-20T07:24:00Z,27.4847,-97.3181,16.1,1111122 
TCOON,ioos:station:TCOON:013:1,2016-01-20T11:24:00Z,27.4847,-97.3181,16.0,1111122 
TCOON,ioos:station:TCOON:013:1,2016-01-20T13:24:00Z,27.4847,-97.3181,16.4,1111122 
TCOON,ioos:station:TCOON:013:1,2016-01-21T04:18:00Z,27.4847,-97.3181,18.2,1111122 
TCOON,ioos:station:TCOON:013:1,2016-01-21T05:18:00Z,27.4847,-97.3181,18.5,1111122 
TCOON,ioos:station:TCOON:013:1,2016-01-21T06:18:00Z,27.4847,-97.3181,18.2,1111122 
TCOON,ioos:station:TCOON:013:1,2016-01-21T08:18:00Z,27.4847,-97.3181,17.7,1111122 
TCOON,ioos:station:TCOON:013:1,2016-01-21T10:18:00Z,27.4847,-97.3181,17.5,1111122 
TCOON,ioos:station:TCOON:013:1,2016-01-22T14:36:00Z,27.4847,-97.3181,9.1,1111122 
TCOON,ioos:station:TCOON:013:1,2016-01-22T15:18:00Z,27.4847,-97.3181,10.4,1111122 
TCOON,ioos:station:TCOON:013:1,2016-01-22T16:18:00Z,27.4847,-97.3181,11.5,1111122 
TCOON,ioos:station:TCOON:013:1,2016-01-22T17:12:00Z,27.4847,-97.3181,12.0,1111122 
TCOON,ioos:station:TCOON:013:1,2016-01-22T18:18:00Z,27.4847,-97.3181,13.2,1111122 
TCOON,ioos:station:TCOON:013:1,2016-01-22T19:18:00Z,27.4847,-97.3181,14.4,1111122 
TCOON,ioos:station:TCOON:013:1,2016-01-22T20:12:00Z,27.4847,-97.3181,17.4,1111122 
TCOON,ioos:station:TCOON:013:1,2016-01-22T21:18:00Z,27.4847,-97.3181,16.1,1111122 
TCOON,ioos:station:TCOON:013:1,2016-01-22T22:12:00Z,27.4847,-97.3181,16.2,1111122 
TCOON,ioos:station:TCOON:013:1,2016-01-22T23:12:00Z,27.4847,-97.3181,15.9,1111122 
TCOON,ioos:station:TCOON:013:1,2016-01-23T00:12:00Z,27.4847,-97.3181,15.0,1111122 
TCOON,ioos:station:TCOON:013:1,2016-01-23T01:12:00Z,27.4847,-97.3181,14.5,1111122 
TCOON,ioos:station:TCOON:013:1,2016-01-23T02:12:00Z,27.4847,-97.3181,14.5,1111122 
TCOON,ioos:station:TCOON:013:1,2016-01-23T03:12:00Z,27.4847,-97.3181,13.0,1111122 
TCOON,ioos:station:TCOON:013:1,2016-01-23T04:18:00Z,27.4847,-97.3181,12.1,1111122 
TCOON,ioos:station:TCOON:013:1,2016-01-23T05:12:00Z,27.4847,-97.3181,11.6,1111122 
TCOON,ioos:station:TCOON:013:1,2016-01-23T06:12:00Z,27.4847,-97.3181,10.9,1111122 
TCOON,ioos:station:TCOON:013:1,2016-01-23T07:12:00Z,27.4847,-97.3181,10.9,1111122 
TCOON,ioos:station:TCOON:013:1,2016-01-23T08:12:00Z,27.4847,-97.3181,10.4,1111122 
TCOON,ioos:station:TCOON:013:1,2016-01-23T09:24:00Z,27.4847,-97.3181,9.8,1111122 
TCOON,ioos:station:TCOON:013:1,2016-01-23T10:12:00Z,27.4847,-97.3181,9.7,1111122 
TCOON,ioos:station:TCOON:013:1,2016-01-23T11:12:00Z,27.4847,-97.3181,9.9,1111122 
TCOON,ioos:station:TCOON:013:1,2016-01-23T12:12:00Z,27.4847,-97.3181,9.8,1111122 
TCOON,ioos:station:TCOON:013:1,2016-01-23T13:12:00Z,27.4847,-97.3181,9.3,1111122 
TCOON,ioos:station:TCOON:013:1,2016-01-23T14:18:00Z,27.4847,-97.3181,9.6,1111122 
TCOON,ioos:station:TCOON:013:1,2016-01-23T15:12:00Z,27.4847,-97.3181,9.9,1111122 